OBJECT J, 100788

Orbit data source: Space-Track

You're viewing an uncataloged RSO

Recently launched and/or uncataloged RSOs may have evolving metadata. Metadata may include the following, but is not limited to: Owner, Manufacturer, Bus, Motor, and Mission.

OBJECT J, 100788 is a Chinese satellite in SSO that was launched on Mon, 21 Sep 2026 UTC launched from the Jiuquan Satellite Launch Center, China (JSC). Unknown objects in Earth's orbit typically refer to objects detected orbiting the Earth but have not yet been identified or cataloged. These objects could be anything from previously untracked satellites, spent rocket stages, debris from satellite collisions, or even natural meteoroids temporarily captured by Earth's gravity.

Loading next visibility...
Identifier
100788, 2026-220J
Orbit
SSO
Country
Flag of CNCN / PRC
Related business
None
Manufacturer
Unknown
Mission
Operational spacecraft
Bus & Motor
Unknown
Mass
Unknown
Launch date (UTC)
Icon of a cake. It is the launch day of the satellite!2026-09-21 (11 hours ago)
Launch vehicle
Unknown
Launch site
Jiuquan Satellite Launch Center, China (JSC)
Object type
Unknown
Shape & HBR
Unknown
Radar Cross Section
RCS unknown

Expand to show TLE details & history
Last TLE update: 8 hours ago

TLE from 8 hours ago
0 OBJECT J
1 A0788U 26220J   26264.60317602  .00001791  00000-0  11020-3 0  9995
2 A0788  97.5410 338.0559 0014797 281.5475  78.4094 15.11222494   221
Epoch: 2026-09-21T14:28Z
TLE epoch observation values (Epoch: 2026-09-21T14:28:34.408Z)
Latitude
0.00005°
Longitude
120.43189°
Altitude
533.505 km
Speed
7.597 km/s
True Right ascension
22h 32m 13s
True Declination
0° 00' 00"
Sunlit
Object was in full shadow at epoch
Visualization orbit readout
Latitude
Unknown
Longitude
Unknown
Altitude
Unknown
Speed
Unknown
Apparent Right ascension
Unknown
Apparent Declination
Unknown
Sunlit
N/A
Visualization observer readout
Local Sidereal Time
15:35:59
Azimuth
Unknown
Elevation
Unknown
Doppler factor
Unknown
Orbital elements
Apogee altitude
539.675 km
Perigee altitude
519.233 km
Semi-major axis
6,907.591 km
Eccentricity
0.00148
Inclination
97.541°
RAAN
338.0559°
Arg. of periapsis
281.5475°
True anomaly
78.57556°
Mean anomaly
78.4094°
Eccentric anomaly
78.49248°
Mean motion
3.78053 °/min
Orbital period
95.22 mins
BSTAR
0.0001102
Loading maneuver chart data...
Computing Atmospheric mass density...
Loading historical data...
Loading historical data...
Loading historical data...
Loading historical data...
Loading historical data...
Loading historical data...
Loading historical data...

Documentation

Showing up to 5 results
|